Tracking 30402 objects as of 13-May-2025
HD Live streaming from Space Station
objects crossing your sky now

DMSP 5D-2 F14 DEB

Track DMSP 5D-2 F14 DEB now!
10-day predictions


NORAD ID: 62938
Int'l Code: 1997-012J
Perigee: 839.1 km
Apogee: 845.6 km
Inclination: 98.9 °
Period: 101.6 minutes
Semi major axis: 7213 km
RCS: Unknown
Launch date: April 4, 1997
Source: United States (US)
Launch site: AIR FORCE WESTERN TEST RANGE (AFWTR)

Note: This is SATELLITE DEBRIS
Your satellite tracking list
Your tracking list is empty




NASA's NSSDC Master Catalog

Two Line Element Set (TLE):
1 62938U 97012J   25132.10598209  .00002133  00000-0  10817-2 0  9992
2 62938  98.8676 181.4582 0004487 126.5279 233.6309 14.17079695 20252
Source of the keplerian elements: AFSPC